ATLAS 5 CENTAUR DEB, 44040

Orbit data source: Space-Track

ATLAS 5 CENTAUR DEB, 44040 is space debris in HEO originally from a launch on Wed, 17 Sep 2014 UTC launched from the Air Force Eastern Test Range (AFETR). Debris objects in space refer to the collection of defunct objects orbiting the Earth. Examples of debris include non-operational satellites, rocket bodies, and fragments generated from explosions, collisions, or faulty payload assembly.

Loading next visibility...
Identifier
44040, 2014-055CA
Orbit
HEO
Last TLE update
5 days ago
Origin
Flag of USUnited Launch Alliance/Lockheed Martin (US)
Manufacturer
Unknown
Mission
Spacecraft
Bus & Motor
Unknown
Mass
Unknown
Launch date (UTC)
2014-09-17 (11 years ago)
Launch vehicle
Unknown
Launch site
Air Force Eastern Test Range (AFETR)
Object type
Payload
Rocket body
Debris
Shape & HBR
Unknown
Radar Cross Section
Small (<0.1 m²)

Expand to show TLE details & history

TLE from 5 days ago
0 ATLAS 5 CENTAUR DEB
1 44040U 14055CA  25181.83583817 -.00000043  00000-0  00000+0 0  9994
2 44040  19.7768 170.1266 4852417 119.8659 296.9011  1.88062164 45244
Epoch: 2025-06-30T20:03Z
TLE epoch observation values (Epoch: 2025-06-30T20:03:36.417Z)
Latitude
0.00001°
Longitude
-49.93721°
Altitude
21,550.647 km
Speed
3.764 km/s
True Right ascension
11h 20m 25s
True Declination
0° 00' 00"
Sunlit
Object was in daylight at epoch
Visualization orbit readout
Latitude
-17.27132°
Longitude
-110.27334°
Altitude
34,795.844 km
Speed
2.233 km/s
Apparent Right ascension
06h 52m 55s
Apparent Declination
-23° 42' 37"
Sunlit
Object is in daylight
Visualization observer readout
Local Sidereal Time
11:17:11
Azimuth
236.842° WSW
Elevation
1.539°
Doppler factor
1
Orbital elements
Apogee altitude
34,802.759 km
Perigee altitude
7,894.427 km
Semi-major axis
27,726.73 km
Eccentricity
0.48524
Inclination
19.7768°
RAAN
170.1266°
Arg. of periapsis
119.8659°
True anomaly
Unknown
Mean anomaly
296.9011°
Eccentric anomaly
Unknown
Mean motion
0.47011 °/min
Orbital period
765.79 mins
BSTAR
0
Loading maneuver chart data...
Loading SW <> Apogee altitude chart data...

ATLAS 5 CENTAUR DEB Visibility forecast

Observer location: undefined°, undefined°

Span
Click to sort rows by Start time (UTC) header in descending order
Start Az.
Max El. time (UTC)
Max El. Az.
Max El.
End time (UTC)
End Az.
135 mins2025-07-06 04:00:50.700Z252.803° W2025-07-06 05:35:50.700Z183.606° SSW39.627°2025-07-06 06:15:50.700Z110.608° ESE
|